RH
14 14 17 16 16 16 16 16 17 25 30 24 24 25 20 19 24 27 19 15 14 12 12 12 13 13 13 15 18 25 27 21 22 32 46 52 48 42 38 41 45 50 55 56 54 52 48 46 50 52 50 48 46 43 43 47 48 48 50 52 56 59 61 63 63 66 68 70 74 76 76 75 74 74 75 78 80 79 82 85 85 84 82 82 81 78
15 14 14 13 15 18 19 19 17 23 26 23 21 17 16 15 17 24 22 17 15 13 13 13 13 13 14 14 17 27 32 24 19 24 34 41 44 41 39 42 46 52 58 57 52 51 52 51 51 53 54 54 52 46 43 45 47 47 48 50 55 57 57 60 63 64 66 71 76 76 74 73 74 77 77 76 78 81 84 84 84 85 82 81 80 77
16 14 13 13 15 19 23 23 21 23 23 21 19 16 16 18 19 25 25 18 16 14 14 13 13 13 14 13 14 22 30 25 19 20 24 31 39 40 36 39 45 48 53 53 50 53 54 51 48 48 51 52 52 48 45 47 50 51 52 53 56 57 57 61 64 65 68 73 76 75 75 74 76 79 77 75 79 82 85 84 82 82 79 77 76 75
20 15 13 14 17 21 23 25 24 23 22 19 19 18 16 20 23 26 27 24 19 16 14 14 15 15 15 15 14 17 23 23 19 18 19 23 33 40 39 39 39 41 48 50 49 56 57 52 47 46 47 47 49 50 50 52 55 59 58 56 58 59 59 61 62 64 71 75 74 74 77 76 76 77 74 76 82 83 83 82 81 81 79 77 75 74
22 19 17 17 20 22 21 24 24 22 21 20 20 19 18 23 26 27 28 26 22 18 15 14 15 16 15 15 14 15 19 21 20 19 19 19 24 35 44 48 44 40 44 44 46 57 63 57 49 46 44 44 49 54 56 57 59 62 61 59 61 62 62 63 62 64 71 75 73 73 77 76 73 73 71 73 78 81 82 81 82 83 78 74 69 67
21 23 23 21 21 20 19 22 22 20 21 21 21 19 18 22 26 26 24 21 19 17 16 15 15 15 14 15 15 16 19 21 21 20 19 18 20 29 42 53 52 44 42 41 44 57 66 61 51 46 44 44 50 55 59 61 61 62 63 63 65 66 66 66 66 67 70 73 73 73 76 76 74 73 71 70 73 81 83 80 79 78 73 69 64 61
20 24 27 23 21 19 18 20 21 21 20 21 22 21 20 21 22 22 20 18 17 16 19 19 18 19 18 19 21 22 25 26 26 25 22 19 20 25 34 49 55 48 44 43 44 56 63 59 50 45 44 46 51 56 61 65 68 67 63 62 64 66 66 67 69 70 70 73 74 74 75 76 74 73 72 71 76 81 79 73 72 69 67 66 62 59
23 28 30 23 19 18 18 20 21 21 20 21 22 23 24 23 21 20 18 18 17 17 22 22 21 21 20 22 25 28 30 30 28 29 28 24 21 23 28 41 50 45 41 41 46 57 58 52 48 45 44 46 50 56 59 62 67 66 60 58 61 64 66 68 69 70 70 72 73 73 77 78 74 73 72 73 77 79 73 68 67 64 63 63 59 57
25 26 28 22 18 19 19 20 21 22 21 21 23 23 24 22 20 20 19 18 17 18 22 23 24 23 20 21 24 28 31 30 29 33 37 34 29 29 28 35 45 42 35 37 48 58 54 47 46 44 45 47 48 52 54 55 60 63 59 57 58 61 64 66 69 68 66 68 69 71 77 77 72 69 69 72 76 75 69 65 64 64 62 59 56 55
30 27 26 23 20 21 21 21 22 23 21 20 22 23 21 20 19 19 18 18 20 21 20 22 25 26 24 24 23 26 31 33 37 42 45 40 35 36 33 36 45 45 39 40 48 54 50 44 43 42 45 46 46 49 51 53 58 62 62 60 59 61 58 56 60 63 61 62 65 68 71 70 69 67 67 72 74 69 64 61 61 61 58 55 55 54
33 33 30 27 24 23 22 23 23 23 21 20 22 22 19 18 18 20 20 20 24 24 20 21 24 28 29 28 29 34 38 40 45 48 46 40 36 35 34 38 46 47 44 46 50 51 49 45 42 41 44 46 47 49 51 53 57 60 62 61 60 61 57 51 51 57 60 61 64 66 66 67 69 69 69 72 72 66 63 60 56 55 55 54 54 52
28 33 32 26 23 22 22 22 22 23 23 21 22 20 18 19 21 23 23 24 26 24 22 24 24 27 31 34 40 45 44 42 43 46 45 41 39 37 36 42 49 49 47 47 48 49 49 46 42 41 42 46 48 49 51 53 57 61 63 62 61 61 60 55 52 55 59 61 63 63 65 68 71 72 71 69 68 66 63 58 53 54 55 53 51 49
28 30 29 24 21 20 22 24 25 26 24 21 22 19 18 25 29 30 29 29 28 24 23 28 29 31 35 40 46 46 41 37 36 38 39 38 42 43 39 42 48 51 50 48 47 48 47 45 42 40 41 44 47 50 53 55 58 62 64 64 62 60 60 59 57 56 56 58 60 59 62 67 72 76 74 69 68 66 61 56 53 55 56 53 52 51
30 31 27 24 22 20 22 24 26 28 24 20 21 18 19 28 35 36 34 32 32 29 26 29 33 34 36 43 50 44 37 35 34 34 34 34 40 43 41 42 46 50 51 50 49 47 45 43 41 40 40 44 47 51 55 58 61 63 63 63 62 60 60 63 63 58 54 57 57 57 60 64 73 80 75 70 69 64 58 55 55 55 54 53 54 53
30 32 30 27 24 21 19 21 24 25 23 21 20 18 20 27 35 39 39 38 37 34 33 35 34 31 34 46 51 43 37 37 38 37 36 36 40 43 44 45 49 54 55 52 48 44 43 43 42 42 43 47 50 52 56 58 60 61 62 62 60 58 58 62 66 61 56 58 59 58 59 63 75 81 73 69 67 60 56 57 56 54 52 52 54 55
35 34 33 29 27 24 20 19 22 23 24 23 20 18 21 26 32 36 38 41 40 37 39 40 36 35 42 51 50 44 42 41 41 41 41 44 46 45 46 48 49 54 55 50 45 43 44 46 46 48 50 50 51 54 58 59 58 59 60 60 59 57 56 58 62 63 60 60 59 59 60 64 76 80 72 68 66 59 58 59 56 54 54 55 56 56
38 37 36 33 33 31 25 21 21 23 28 30 24 20 20 25 32 35 38 41 40 38 37 35 37 42 46 50 53 52 47 45 46 47 48 51 50 46 48 49 46 47 47 44 45 47 48 50 52 54 54 51 50 55 60 60 59 58 59 59 58 57 57 55 57 62 64 64 66 67 68 70 76 77 71 68 64 58 58 59 56 54 54 55 59 60
36 38 37 34 34 33 28 26 24 22 26 32 32 29 24 24 29 34 39 42 40 36 32 28 33 41 44 48 55 58 52 49 53 55 55 56 55 54 55 52 48 49 45 42 48 51 51 52 52 53 56 55 53 56 59 59 59 59 59 60 59 59 58 56 54 57 60 64 68 71 71 69 70 71 70 67 61 54 54 58 56 54 56 58 62 61
38 37 35 32 32 31 28 27 27 25 23 26 32 35 32 32 34 34 36 41 41 38 34 29 29 40 52 56 60 63 56 53 56 59 61 63 62 60 61 59 57 56 51 48 54 56 53 54 54 53 56 58 57 58 59 60 61 61 60 61 61 60 60 58 56 55 56 59 62 65 66 67 68 70 69 65 57 52 55 58 55 58 65 66 64 61
41 40 37 33 31 30 28 26 26 27 25 23 28 31 32 36 40 38 36 36 37 39 40 34 32 49 63 60 60 63 57 55 59 63 66 69 68 64 63 65 65 62 58 56 58 58 55 55 56 56 58 59 61 61 63 65 64 63 63 63 62 62 62 61 58 57 57 56 57 62 65 68 71 71 69 63 55 53 58 58 56 62 68 63 60 59
41 42 39 37 33 31 30 27 23 25 26 25 25 28 30 33 36 39 40 37 34 38 40 34 39 60 69 60 60 62 59 59 60 61 66 68 67 65 64 66 68 67 66 63 62 64 63 60 59 61 61 60 61 65 68 69 68 67 69 69 66 68 71 68 62 61 61 57 55 61 66 69 71 72 70 65 57 56 59 57 57 63 65 61 62 62
39 42 39 39 37 32 29 27 23 24 27 28 26 26 28 30 33 37 41 41 38 39 42 39 47 66 68 60 61 62 61 63 60 59 64 65 62 63 65 66 66 69 72 71 69 71 73 72 69 67 65 62 64 71 76 75 73 74 74 74 74 77 79 76 69 65 63 60 59 62 67 70 71 72 72 69 61 57 58 57 59 63 63 66 71 69
40 43 40 39 39 36 31 29 27 27 29 32 32 30 27 28 32 35 40 45 44 43 44 40 47 65 65 57 58 60 59 60 59 60 64 64 60 61 63 62 63 70 74 71 71 73 73 72 70 70 72 71 72 75 77 76 77 78 77 77 79 82 82 78 73 68 64 65 65 67 71 74 73 71 73 72 65 57 55 56 59 60 60 66 72 71
44 47 45 40 40 43 41 35 33 33 33 34 34 34 33 32 33 36 42 49 45 43 47 43 47 65 67 56 54 57 57 57 58 61 63 64 63 63 62 59 62 71 72 68 69 71 71 69 67 70 75 77 77 77 76 74 75 76 77 78 81 83 81 75 72 72 70 68 66 66 72 77 76 72 72 72 67 59 55 57 58 57 58 62 66 66
48 48 47 44 43 47 50 43 37 37 37 35 34 35 37 37 39 42 47 52 45 40 48 49 52 67 68 57 54 54 55 58 59 60 61 61 62 64 64 62 66 73 71 67 69 71 73 74 73 73 74 74 77 79 78 76 75 75 78 80 82 81 77 70 66 72 78 77 72 72 74 77 79 78 74 71 66 59 58 58 56 56 58 59 59 61
53 50 47 45 44 47 54 52 47 43 39 36 35 37 40 40 42 44 45 50 48 43 45 44 50 67 68 58 55 53 54 61 62 62 64 63 63 67 69 71 75 77 72 70 72 75 77 78 78 79 77 76 79 79 78 79 79 79 79 80 79 77 74 70 66 72 85 87 82 79 76 74 78 79 76 73 69 64 64 63 59 57 59 59 58 61
59 57 52 50 51 52 55 58 57 52 45 42 38 40 46 41 40 45 44 44 48 48 47 48 56 72 71 59 57 57 56 62 64 65 67 67 68 72 76 79 82 81 76 73 74 75 75 76 78 81 81 79 79 78 77 78 78 78 77 76 78 78 75 74 72 75 85 88 83 78 74 72 74 76 76 75 73 71 70 68 63 60 61 60 60 63
65 64 57 58 62 58 53 55 58 54 50 53 51 50 51 43 44 53 48 42 48 49 51 57 62 70 70 60 57 59 60 62 64 65 69 71 71 73 76 79 79 79 77 74 75 75 74 72 72 75 77 77 76 75 75 75 74 74 74 76 82 84 80 77 77 78 81 84 81 76 73 72 74 77 78 76 74 73 74 73 70 66 64 62 63 65
70 71 61 61 66 62 55 54 57 56 57 64 69 67 59 51 55 60 51 47 52 49 53 65 68 72 74 65 58 58 62 66 67 65 69 72 74 74 74 75 75 75 76 75 76 78 76 74 71 71 73 74 75 77 78 77 75 75 76 80 87 90 86 82 82 82 82 84 82 78 76 76 77 79 79 77 75 74 76 78 77 75 71 68 69 69
65 75 73 69 69 67 62 57 55 59 62 65 71 70 64 59 61 62 57 56 55 52 58 68 70 71 72 65 59 58 62 69 70 69 71 73 75 76 74 75 77 78 80 81 80 80 78 76 74 74 76 78 80 83 82 79 79 79 82 86 91 94 91 88 87 87 87 87 86 84 81 80 81 81 80 81 81 79 79 80 80 80 78 75 74 73
63 73 76 73 69 68 65 61 59 64 67 67 67 65 62 62 63 63 61 59 58 60 63 64 65 67 64 61 63 64 63 67 70 72 74 75 77 79 77 77 80 80 82 82 81 79 77 75 76 77 78 79 79 79 79 79 80 83 87 90 92 96 96 94 93 92 93 95 93 88 83 82 83 84 84 86 86 84 83 83 82 82 81 79 78 75
66 69 70 70 72 69 64 61 62 66 70 72 71 66 62 63 64 62 60 59 62 68 69 65 65 66 62 61 66 68 67 69 71 72 74 77 81 84 81 79 80 80 79 78 76 76 74 74 76 77 76 76 75 76 80 83 84 85 88 91 91 93 95 96 95 94 95 97 95 89 86 86 86 86 89 89 88 87 87 87 87 84 83 83 80 75
69 71 69 71 77 75 69 66 64 66 72 77 77 70 64 64 65 63 62 62 65 67 67 66 64 64 62 63 68 71 71 72 72 71 73 77 82 85 82 79 79 78 77 76 75 75 75 75 76 77 77 77 77 79 84 87 88 87 88 92 93 93 93 94 96 97 98 97 94 91 92 91 89 89 91 93 92 91 91 92 91 88 87 88 84 78
67 70 72 79 84 82 78 73 68 67 72 78 79 75 69 67 67 67 67 65 66 66 64 62 61 62 64 66 70 74 74 75 75 75 76 78 80 81 81 79 79 79 80 80 79 78 78 76 76 78 82 82 82 83 85 86 87 86 87 90 92 93 92 92 93 96 98 98 97 95 94 94 93 93 94 94 94 93 93 93 93 90 89 90 88 85
65 70 75 83 86 85 84 82 79 77 76 78 79 77 75 72 70 69 68 65 66 68 65 62 63 64 65 68 73 76 77 77 76 77 80 82 80 80 81 81 81 81 81 82 82 81 80 78 76 78 82 85 85 84 84 84 84 84 85 86 86 87 89 89 90 93 95 97 98 98 98 97 97 96 95 95 94 92 92 93 93 90 87 86 86 86
61 71 77 79 82 86 89 87 85 83 82 82 81 78 79 79 75 74 73 70 69 69 66 65 65 65 67 72 77 78 78 78 77 79 82 83 83 84 83 82 82 80 79 81 82 81 81 81 80 79 81 84 86 85 84 84 83 82 82 83 82 81 81 82 84 89 92 94 96 98 98 97 96 96 95 94 93 92 93 94 93 88 81 78 81 83
54 66 77 81 83 84 85 86 87 85 84 85 85 83 85 85 83 81 79 77 75 70 68 69 68 70 74 77 78 78 76 75 77 80 82 82 83 84 83 83 82 78 76 78 81 81 80 81 83 83 82 84 85 86 86 85 84 82 81 80 80 79 77 75 76 78 81 84 86 89 89 90 92 94 94 91 88 87 89 91 91 88 81 77 78 78
48 60 77 87 86 81 82 85 82 79 82 84 82 81 85 87 87 85 83 83 81 75 74 75 74 77 80 78 78 77 73 73 77 80 80 81 82 82 82 81 81 79 75 77 81 82 78 77 80 82 82 82 82 84 85 85 84 83 81 80 80 78 77 76 75 75 76 76 78 80 82 83 85 87 88 87 83 82 85 88 91 94 92 87 83 79
50 60 77 88 84 80 83 84 77 76 83 83 76 74 78 85 88 88 89 91 87 80 80 82 82 84 86 83 80 79 75 74 77 80 81 81 82 81 80 81 84 83 80 79 82 81 77 75 77 78 79 80 80 79 80 82 84 84 83 82 82 80 78 77 77 78 79 79 79 81 82 83 83 82 83 83 82 82 85 86 89 93 91 90 91 87
54 63 75 81 78 77 81 81 81 86 87 80 75 72 75 83 86 87 92 96 92 87 87 87 87 89 91 90 88 85 82 79 80 81 82 81 81 81 80 81 84 84 83 82 82 81 80 79 78 77 79 81 81 78 77 79 82 82 82 81 81 80 79 78 78 77 77 78 79 80 81 81 81 81 82 84 85 87 88 87 87 87 86 88 92 91
57 63 69 73 75 77 78 77 82 91 88 78 76 77 78 85 87 87 93 96 94 93 93 92 92 94 95 95 94 92 91 89 86 86 83 81 80 80 79 79 82 84 84 83 82 81 81 80 79 79 80 82 82 80 78 79 79 78 78 78 77 77 77 78 78 77 76 77 77 77 78 78 77 77 78 79 82 85 87 88 86 84 82 83 85 85
62 68 68 67 69 73 76 78 83 91 89 79 78 81 83 87 89 90 94 94 93 94 94 94 96 97 97 97 97 97 96 93 90 87 85 83 82 82 82 82 84 86 85 83 81 80 79 77 77 79 80 81 82 80 79 81 81 79 78 77 76 77 77 77 77 75 75 76 75 75 75 74 74 74 75 75 77 79 82 86 87 84 82 82 81 80
66 71 71 69 68 68 73 81 85 89 86 78 77 83 85 88 91 93 93 92 92 94 93 94 97 96 96 98 99 98 96 94 92 91 89 88 87 86 86 86 87 89 88 85 83 80 78 76 75 76 77 79 80 80 79 82 83 83 81 80 79 81 81 81 80 79 78 78 77 75 74 72 72 73 73 74 76 76 78 82 85 85 84 84 83 81
66 70 73 75 76 75 79 86 89 89 85 79 79 84 89 91 93 94 93 92 92 91 90 93 95 95 96 98 99 98 96 95 96 96 93 92 91 90 91 92 92 91 91 90 87 83 81 79 76 76 78 79 80 80 79 81 83 83 82 81 79 79 80 80 80 81 82 82 80 79 78 77 77 78 77 76 75 74 75 77 80 84 86 87 86 85
68 67 71 79 84 85 88 93 93 90 88 84 84 88 91 92 92 91 91 91 89 88 87 90 94 96 98 98 97 97 97 96 96 95 95 94 93 91 92 92 90 89 90 91 91 88 87 85 81 81 82 82 82 80 77 77 79 79 79 78 76 76 76 76 77 78 80 80 79 79 79 79 78 79 78 77 76 75 75 76 78 80 82 84 84 84
72 68 73 85 89 86 87 91 92 92 92 91 90 89 90 91 90 88 88 86 85 86 87 89 91 93 95 97 97 97 97 96 96 95 95 95 94 94 94 93 92 91 91 91 90 89 89 89 88 89 87 86 86 85 80 77 76 75 75 75 74 73 73 73 73 74 77 78 77 76 75 75 74 73 72 72 74 75 76 78 78 79 81 82 83 83
74 72 76 85 88 86 88 91 89 89 92 91 89 88 87 87 86 84 84 83 81 83 86 86 85 85 87 91 94 95 95 95 96 96 95 94 94 95 94 94 94 92 91 91 91 90 89 89 91 91 90 88 87 87 85 82 79 76 75 74 72 72 71 71 71 72 74 77 76 74 71 69 69 67 66 68 71 72 72 73 72 70 70 71 73 75
78 76 77 82 85 87 91 91 88 87 88 85 84 85 84 83 83 81 81 80 78 79 80 79 78 78 79 81 84 86 88 90 91 92 93 93 94 94 93 92 90 89 88 89 90 89 89 90 90 89 88 86 85 85 83 80 78 76 75 73 69 66 65 66 68 70 71 72 72 71 69 67 65 62 58 58 59 60 60 60 58 55 54 53 54 56
79 79 80 82 84 85 87 85 83 84 85 83 83 83 82 82 82 81 80 79 80 82 81 79 78 77 77 77 78 80 82 82 82 82 84 86 88 89 89 89 88 87 87 88 88 88 88 88 88 87 85 83 81 79 77 74 71 70 70 68 66 63 62 62 63 66 68 67 66 65 65 64 63 59 54 50 47 47 47 46 45 44 43 43 43 43
78 79 79 80 83 83 80 77 75 77 81 82 82 81 80 81 81 81 80 80 80 81 82 81 82 81 80 80 80 80 80 79 78 77 78 79 81 81 82 83 83 83 83 84 85 87 87 87 86 86 86 83 79 77 74 71 69 68 68 67 67 67 66 64 63 63 63 63 62 60 59 58 57 55 53 49 44 40 38 37 36 36 35 35 36 35
77 77 75 76 79 78 74 72 70 72 76 80 79 79 81 82 82 82 84 84 83 81 81 82 84 84 84 84 83 82 82 80 78 77 76 76 76 76 78 79 79 79 80 80 82 83 83 83 84 85 85 84 83 81 79 75 73 72 71 70 70 70 68 66 62 60 58 57 56 54 53 51 50 48 48 46 44 40 37 34 32 31 31 30 30 29